Weather in Nea Potidaea

Greece     40°11′41″N   23°19′39″E
temp.,
°C
wind,
m/s
gust,
m/s
humid.,
%
clouds,
%
prec.,
mm/h
press.,
hPa
HPBL,
m
7 may, fri
fri700:00+18ene5576100 0.0 101469
03:00+18e457131 0.0 101363
06:00+18e446678 0.0 101352
09:00+19e4567100 0.0 1014118
12:00+19se2268100 0.0 1015143
15:00+20se4464100 0.0 1013162
18:00+20ese456785 0.0 1011132
21:00+18e447312 0.0 101154
8 may, sat
sat800:00+19ene4465100 0.0 101042
03:00+19nne1165100 0.0 100911
06:00+18nw236496 0.0 101021
09:00+19wnw4467100 0.0 101297
12:00+21nw3562100 0.0 1011199
15:00+21wnw356399 0.0 1012199
18:00+21ese466715 0.0 1013209
21:00+19e810755 0.0 1016291
9 may, sun
sun900:00+17e897953 0.0 1020496
03:00+16e977791 0.0 1021346
06:00+16e10973100 0.0 1023603
09:00+16e887090 0.1 1025702
12:00+16ese5563100 0.0 1026871
15:00+17se4459100 0.0 1026646
18:00+17s335853 0.0 1025562
21:00+16sw11638 0.0 1025297
10 may, mon
mon1000:00+15nne22670 0.0 1026131
03:00+14e67700 0.0 1025502
06:00+14ene44680 0.0 1025280
09:00+15ene01630 0.0 1025304
12:00+16sse33607 0.0 1024465
15:00+17ese55480 0.0 1023410
18:00+18sse44535 0.0 1022473
21:00+16ssw22530 0.0 1022211
11 may, tue
tue1100:00+15ne22553 0.0 102298
03:00+15ene67670 0.0 1021386
06:00+14ene56680 0.0 1021361
09:00+15e33640 0.0 1021436
12:00+17se54550 0.0 1021423
15:00+18se44525 0.0 1019416
18:00+18sse33575 0.0 1018458
21:00+16sse22630 0.0 1017269